owner,sensor,date,latitude,longitude,air_temperature,qcFlag 
DISL,ioos:station:DISL:PPTA:1,2017-02-01T00:00:00Z,30.2791,-87.5561,18.18,1111122 
DISL,ioos:station:DISL:PPTA:1,2017-02-01T00:30:00Z,30.2791,-87.5561,18.26,1111122 
DISL,ioos:station:DISL:PPTA:1,2017-02-01T01:00:00Z,30.2791,-87.5561,18.33,1111122 
DISL,ioos:station:DISL:PPTA:1,2017-02-01T01:30:00Z,30.2791,-87.5561,18.27,1111122 
DISL,ioos:station:DISL:PPTA:1,2017-02-01T02:00:00Z,30.2791,-87.5561,18.27,1111122 
DISL,ioos:station:DISL:PPTA:1,2017-02-01T02:30:00Z,30.2791,-87.5561,18.23,1111122 
DISL,ioos:station:DISL:PPTA:1,2017-02-01T03:00:00Z,30.2791,-87.5561,18.2,1111122 
DISL,ioos:station:DISL:PPTA:1,2017-02-01T03:30:00Z,30.2791,-87.5561,18.2,1111122 
DISL,ioos:station:DISL:PPTA:1,2017-02-01T04:00:00Z,30.2791,-87.5561,18.2,1111122 
DISL,ioos:station:DISL:PPTA:1,2017-02-01T04:30:00Z,30.2791,-87.5561,18.2,1111122 
DISL,ioos:station:DISL:PPTA:1,2017-02-01T05:00:00Z,30.2791,-87.5561,18.2,1111122 
DISL,ioos:station:DISL:PPTA:1,2017-02-01T05:30:00Z,30.2791,-87.5561,18.16,1111122 
DISL,ioos:station:DISL:PPTA:1,2017-02-01T06:00:00Z,30.2791,-87.5561,18.09,1111122 
DISL,ioos:station:DISL:PPTA:1,2017-02-01T06:30:00Z,30.2791,-87.5561,17.86,1111122 
DISL,ioos:station:DISL:PPTA:1,2017-02-01T07:00:00Z,30.2791,-87.5561,17.69,1111122 
DISL,ioos:station:DISL:PPTA:1,2017-02-01T07:30:00Z,30.2791,-87.5561,17.93,1111122 
DISL,ioos:station:DISL:PPTA:1,2017-02-01T08:00:00Z,30.2791,-87.5561,17.9,1111122 
DISL,ioos:station:DISL:PPTA:1,2017-02-01T08:30:00Z,30.2791,-87.5561,17.66,1111122 
DISL,ioos:station:DISL:PPTA:1,2017-02-01T09:00:00Z,30.2791,-87.5561,17.52,1111122 
DISL,ioos:station:DISL:PPTA:1,2017-02-01T09:30:00Z,30.2791,-87.5561,17.32,1111122 
DISL,ioos:station:DISL:PPTA:1,2017-02-01T10:00:00Z,30.2791,-87.5561,17.36,1111122 
DISL,ioos:station:DISL:PPTA:1,2017-02-01T10:30:00Z,30.2791,-87.5561,17.4,1111122 
DISL,ioos:station:DISL:PPTA:1,2017-02-01T11:00:00Z,30.2791,-87.5561,14.94,1111122 
DISL,ioos:station:DISL:PPTA:1,2017-02-01T11:30:00Z,30.2791,-87.5561,13.78,1111122 
DISL,ioos:station:DISL:PPTA:1,2017-02-01T12:00:00Z,30.2791,-87.5561,13.61,1111122 
DISL,ioos:station:DISL:PPTA:1,2017-02-01T12:30:00Z,30.2791,-87.5561,13.55,1111122 
DISL,ioos:station:DISL:PPTA:1,2017-02-01T13:00:00Z,30.2791,-87.5561,14.23,1111122 
DISL,ioos:station:DISL:PPTA:1,2017-02-01T13:30:00Z,30.2791,-87.5561,15.43,1111122 
DISL,ioos:station:DISL:PPTA:1,2017-02-01T14:00:00Z,30.2791,-87.5561,15.48,1111122 
DISL,ioos:station:DISL:PPTA:1,2017-02-01T14:30:00Z,30.2791,-87.5561,15.7,1111122 
DISL,ioos:station:DISL:PPTA:1,2017-02-01T15:00:00Z,30.2791,-87.5561,16.11,1111122 
DISL,ioos:station:DISL:PPTA:1,2017-02-01T15:30:00Z,30.2791,-87.5561,16.78,1111122 
DISL,ioos:station:DISL:PPTA:1,2017-02-01T16:00:00Z,30.2791,-87.5561,17.27,1111122 
DISL,ioos:station:DISL:PPTA:1,2017-02-01T16:30:00Z,30.2791,-87.5561,20.03,1111122 
DISL,ioos:station:DISL:PPTA:1,2017-02-01T17:00:00Z,30.2791,-87.5561,21.04,1111122 
DISL,ioos:station:DISL:PPTA:1,2017-02-01T17:30:00Z,30.2791,-87.5561,20.57,1111122 
DISL,ioos:station:DISL:PPTA:1,2017-02-01T18:00:00Z,30.2791,-87.5561,20.9,1111122 
DISL,ioos:station:DISL:PPTA:1,2017-02-01T18:30:00Z,30.2791,-87.5561,21.37,1111122 
DISL,ioos:station:DISL:PPTA:1,2017-02-01T19:00:00Z,30.2791,-87.5561,20.59,1111122 
DISL,ioos:station:DISL:PPTA:1,2017-02-01T19:30:00Z,30.2791,-87.5561,20.88,1111122 
DISL,ioos:station:DISL:PPTA:1,2017-02-01T20:00:00Z,30.2791,-87.5561,21.09,1111122 
DISL,ioos:station:DISL:PPTA:1,2017-02-01T20:30:00Z,30.2791,-87.5561,21.0,1111122 
DISL,ioos:station:DISL:PPTA:1,2017-02-01T21:00:00Z,30.2791,-87.5561,20.97,1111122 
DISL,ioos:station:DISL:PPTA:1,2017-02-01T21:30:00Z,30.2791,-87.5561,20.95,1111122 
DISL,ioos:station:DISL:PPTA:1,2017-02-01T22:00:00Z,30.2791,-87.5561,21.57,1111122 
DISL,ioos:station:DISL:PPTA:1,2017-02-01T22:30:00Z,30.2791,-87.5561,20.78,1111122 
DISL,ioos:station:DISL:PPTA:1,2017-02-01T23:00:00Z,30.2791,-87.5561,20.51,1111122 
DISL,ioos:station:DISL:PPTA:1,2017-02-01T23:30:00Z,30.2791,-87.5561,19.66,1111122 
DISL,ioos:station:DISL:PPTA:1,2017-02-02T00:00:00Z,30.2791,-87.5561,19.53,1111122 
DISL,ioos:station:DISL:PPTA:1,2017-02-02T00:30:00Z,30.2791,-87.5561,19.19,1111122 
DISL,ioos:station:DISL:PPTA:1,2017-02-02T01:00:00Z,30.2791,-87.5561,19.03,1111122 
DISL,ioos:station:DISL:PPTA:1,2017-02-02T01:30:00Z,30.2791,-87.5561,19.1,1111122 
DISL,ioos:station:DISL:PPTA:1,2017-02-02T02:00:00Z,30.2791,-87.5561,18.87,1111122 
DISL,ioos:station:DISL:PPTA:1,2017-02-02T02:30:00Z,30.2791,-87.5561,18.8,1111122 
DISL,ioos:station:DISL:PPTA:1,2017-02-02T03:00:00Z,30.2791,-87.5561,18.97,1111122 
DISL,ioos:station:DISL:PPTA:1,2017-02-02T03:30:00Z,30.2791,-87.5561,18.66,1111122 
DISL,ioos:station:DISL:PPTA:1,2017-02-02T04:00:00Z,30.2791,-87.5561,18.77,1111122 
DISL,ioos:station:DISL:PPTA:1,2017-02-02T04:30:00Z,30.2791,-87.5561,18.94,1111122 
DISL,ioos:station:DISL:PPTA:1,2017-02-02T05:00:00Z,30.2791,-87.5561,18.94,1111122 
DISL,ioos:station:DISL:PPTA:1,2017-02-02T05:30:00Z,30.2791,-87.5561,18.74,1111122 
DISL,ioos:station:DISL:PPTA:1,2017-02-02T06:00:00Z,30.2791,-87.5561,18.64,1111122 
DISL,ioos:station:DISL:PPTA:1,2017-02-02T06:30:00Z,30.2791,-87.5561,18.71,1111122 
DISL,ioos:station:DISL:PPTA:1,2017-02-02T07:00:00Z,30.2791,-87.5561,15.81,1111122 
DISL,ioos:station:DISL:PPTA:1,2017-02-02T07:30:00Z,30.2791,-87.5561,14.58,1111122 
DISL,ioos:station:DISL:PPTA:1,2017-02-02T08:00:00Z,30.2791,-87.5561,14.38,1111122 
DISL,ioos:station:DISL:PPTA:1,2017-02-02T08:30:00Z,30.2791,-87.5561,13.88,1111122 
DISL,ioos:station:DISL:PPTA:1,2017-02-02T09:00:00Z,30.2791,-87.5561,14.08,1111122 
DISL,ioos:station:DISL:PPTA:1,2017-02-02T09:30:00Z,30.2791,-87.5561,13.71,1111122 
DISL,ioos:station:DISL:PPTA:1,2017-02-02T10:00:00Z,30.2791,-87.5561,13.51,1111122 
DISL,ioos:station:DISL:PPTA:1,2017-02-02T10:30:00Z,30.2791,-87.5561,13.58,1111122 
DISL,ioos:station:DISL:PPTA:1,2017-02-02T11:00:00Z,30.2791,-87.5561,13.44,1111122 
DISL,ioos:station:DISL:PPTA:1,2017-02-02T11:30:00Z,30.2791,-87.5561,13.38,1111122 
DISL,ioos:station:DISL:PPTA:1,2017-02-02T12:00:00Z,30.2791,-87.5561,13.18,1111122 
DISL,ioos:station:DISL:PPTA:1,2017-02-02T12:30:00Z,30.2791,-87.5561,12.87,1111122 
DISL,ioos:station:DISL:PPTA:1,2017-02-02T13:00:00Z,30.2791,-87.5561,12.97,1111122 
DISL,ioos:station:DISL:PPTA:1,2017-02-02T13:30:00Z,30.2791,-87.5561,14.78,1111122 
DISL,ioos:station:DISL:PPTA:1,2017-02-02T14:00:00Z,30.2791,-87.5561,15.32,1111122 
DISL,ioos:station:DISL:PPTA:1,2017-02-02T14:30:00Z,30.2791,-87.5561,17.86,1111122 
DISL,ioos:station:DISL:PPTA:1,2017-02-02T15:00:00Z,30.2791,-87.5561,17.57,1111122 
DISL,ioos:station:DISL:PPTA:1,2017-02-02T15:30:00Z,30.2791,-87.5561,18.77,1111122 
DISL,ioos:station:DISL:PPTA:1,2017-02-02T16:00:00Z,30.2791,-87.5561,19.36,1111122 
DISL,ioos:station:DISL:PPTA:1,2017-02-02T16:30:00Z,30.2791,-87.5561,19.52,1111122 
DISL,ioos:station:DISL:PPTA:1,2017-02-02T17:00:00Z,30.2791,-87.5561,19.41,1111122 
DISL,ioos:station:DISL:PPTA:1,2017-02-02T17:30:00Z,30.2791,-87.5561,20.71,1111122 
DISL,ioos:station:DISL:PPTA:1,2017-02-02T18:00:00Z,30.2791,-87.5561,20.39,1111122 
DISL,ioos:station:DISL:PPTA:1,2017-02-02T18:30:00Z,30.2791,-87.5561,22.78,1111122 
DISL,ioos:station:DISL:PPTA:1,2017-02-02T19:00:00Z,30.2791,-87.5561,20.45,1111122 
DISL,ioos:station:DISL:PPTA:1,2017-02-02T19:30:00Z,30.2791,-87.5561,21.39,1111122 
DISL,ioos:station:DISL:PPTA:1,2017-02-02T20:00:00Z,30.2791,-87.5561,21.57,1111122 
DISL,ioos:station:DISL:PPTA:1,2017-02-02T20:30:00Z,30.2791,-87.5561,21.92,1111122 
DISL,ioos:station:DISL:PPTA:1,2017-02-02T21:00:00Z,30.2791,-87.5561,21.69,1111122 
DISL,ioos:station:DISL:PPTA:1,2017-02-02T21:30:00Z,30.2791,-87.5561,20.7,1111122 
DISL,ioos:station:DISL:PPTA:1,2017-02-02T22:00:00Z,30.2791,-87.5561,21.12,1111122 
DISL,ioos:station:DISL:PPTA:1,2017-02-02T22:30:00Z,30.2791,-87.5561,20.89,1111122 
DISL,ioos:station:DISL:PPTA:1,2017-02-02T23:00:00Z,30.2791,-87.5561,20.2,1111122 
DISL,ioos:station:DISL:PPTA:1,2017-02-02T23:30:00Z,30.2791,-87.5561,19.59,1111122 
DISL,ioos:station:DISL:PPTA:1,2017-02-03T00:00:00Z,30.2791,-87.5561,19.29,1111122 
DISL,ioos:station:DISL:PPTA:1,2017-02-03T00:30:00Z,30.2791,-87.5561,19.17,1111122 
DISL,ioos:station:DISL:PPTA:1,2017-02-03T01:00:00Z,30.2791,-87.5561,19.0,1111122 
DISL,ioos:station:DISL:PPTA:1,2017-02-03T01:30:00Z,30.2791,-87.5561,19.01,1111122 
DISL,ioos:station:DISL:PPTA:1,2017-02-03T02:00:00Z,30.2791,-87.5561,18.84,1111122 
DISL,ioos:station:DISL:PPTA:1,2017-02-03T02:30:00Z,30.2791,-87.5561,18.88,1111122 
DISL,ioos:station:DISL:PPTA:1,2017-02-03T03:00:00Z,30.2791,-87.5561,18.85,1111122 
DISL,ioos:station:DISL:PPTA:1,2017-02-03T03:30:00Z,30.2791,-87.5561,18.88,1111122 
DISL,ioos:station:DISL:PPTA:1,2017-02-03T04:00:00Z,30.2791,-87.5561,18.84,1111122 
DISL,ioos:station:DISL:PPTA:1,2017-02-03T04:30:00Z,30.2791,-87.5561,18.84,1111122 
DISL,ioos:station:DISL:PPTA:1,2017-02-03T05:00:00Z,30.2791,-87.5561,18.71,1111122 
DISL,ioos:station:DISL:PPTA:1,2017-02-03T05:30:00Z,30.2791,-87.5561,18.61,1111122 
DISL,ioos:station:DISL:PPTA:1,2017-02-03T06:00:00Z,30.2791,-87.5561,16.49,1111122 
DISL,ioos:station:DISL:PPTA:1,2017-02-03T06:30:00Z,30.2791,-87.5561,15.87,1111122 
DISL,ioos:station:DISL:PPTA:1,2017-02-03T07:00:00Z,30.2791,-87.5561,15.64,1111122 
DISL,ioos:station:DISL:PPTA:1,2017-02-03T07:30:00Z,30.2791,-87.5561,15.37,1111122 
DISL,ioos:station:DISL:PPTA:1,2017-02-03T08:00:00Z,30.2791,-87.5561,15.1,1111122 
DISL,ioos:station:DISL:PPTA:1,2017-02-03T08:30:00Z,30.2791,-87.5561,14.53,1111122 
DISL,ioos:station:DISL:PPTA:1,2017-02-03T09:00:00Z,30.2791,-87.5561,14.6,1111122 
DISL,ioos:station:DISL:PPTA:1,2017-02-03T09:30:00Z,30.2791,-87.5561,13.95,1111122 
DISL,ioos:station:DISL:PPTA:1,2017-02-03T10:00:00Z,30.2791,-87.5561,14.12,1111122 
DISL,ioos:station:DISL:PPTA:1,2017-02-03T10:30:00Z,30.2791,-87.5561,14.39,1111122 
DISL,ioos:station:DISL:PPTA:1,2017-02-03T11:00:00Z,30.2791,-87.5561,14.6,1111122 
DISL,ioos:station:DISL:PPTA:1,2017-02-03T11:30:00Z,30.2791,-87.5561,14.73,1111122 
DISL,ioos:station:DISL:PPTA:1,2017-02-03T12:00:00Z,30.2791,-87.5561,14.7,1111122 
DISL,ioos:station:DISL:PPTA:1,2017-02-03T12:30:00Z,30.2791,-87.5561,15.11,1111122 
DISL,ioos:station:DISL:PPTA:1,2017-02-03T13:00:00Z,30.2791,-87.5561,15.18,1111122 
DISL,ioos:station:DISL:PPTA:1,2017-02-03T13:30:00Z,30.2791,-87.5561,15.34,1111122 
DISL,ioos:station:DISL:PPTA:1,2017-02-03T14:00:00Z,30.2791,-87.5561,15.44,1111122 
DISL,ioos:station:DISL:PPTA:1,2017-02-03T14:30:00Z,30.2791,-87.5561,15.61,1111122 
DISL,ioos:station:DISL:PPTA:1,2017-02-03T15:00:00Z,30.2791,-87.5561,15.57,1111122 
DISL,ioos:station:DISL:PPTA:1,2017-02-03T15:30:00Z,30.2791,-87.5561,15.57,1111122 
DISL,ioos:station:DISL:PPTA:1,2017-02-03T16:00:00Z,30.2791,-87.5561,15.74,1111122 
DISL,ioos:station:DISL:PPTA:1,2017-02-03T16:30:00Z,30.2791,-87.5561,16.32,1111122 
DISL,ioos:station:DISL:PPTA:1,2017-02-03T17:00:00Z,30.2791,-87.5561,16.61,1111122 
DISL,ioos:station:DISL:PPTA:1,2017-02-03T17:30:00Z,30.2791,-87.5561,16.67,1111122 
DISL,ioos:station:DISL:PPTA:1,2017-02-03T18:00:00Z,30.2791,-87.5561,15.89,1111122 
DISL,ioos:station:DISL:PPTA:1,2017-02-03T18:30:00Z,30.2791,-87.5561,15.21,1111122 
DISL,ioos:station:DISL:PPTA:1,2017-02-03T19:00:00Z,30.2791,-87.5561,14.64,1111122 
DISL,ioos:station:DISL:PPTA:1,2017-02-03T19:30:00Z,30.2791,-87.5561,15.02,1111122 
DISL,ioos:station:DISL:PPTA:1,2017-02-03T20:00:00Z,30.2791,-87.5561,16.25,1111122 
DISL,ioos:station:DISL:PPTA:1,2017-02-03T20:30:00Z,30.2791,-87.5561,16.01,1111122 
DISL,ioos:station:DISL:PPTA:1,2017-02-03T21:00:00Z,30.2791,-87.5561,16.32,1111122 
DISL,ioos:station:DISL:PPTA:1,2017-02-03T21:30:00Z,30.2791,-87.5561,15.19,1111122 
DISL,ioos:station:DISL:PPTA:1,2017-02-03T22:00:00Z,30.2791,-87.5561,15.06,1111122 
DISL,ioos:station:DISL:PPTA:1,2017-02-03T22:30:00Z,30.2791,-87.5561,15.2,1111122 
DISL,ioos:station:DISL:PPTA:1,2017-02-03T23:00:00Z,30.2791,-87.5561,14.08,1111122 
DISL,ioos:station:DISL:PPTA:1,2017-02-03T23:30:00Z,30.2791,-87.5561,13.06,1111122 
DISL,ioos:station:DISL:PPTA:1,2017-02-04T00:00:00Z,30.2791,-87.5561,12.42,1111122 
DISL,ioos:station:DISL:PPTA:1,2017-02-04T00:30:00Z,30.2791,-87.5561,11.6,1111122 
DISL,ioos:station:DISL:PPTA:1,2017-02-04T01:00:00Z,30.2791,-87.5561,11.13,1111122 
DISL,ioos:station:DISL:PPTA:1,2017-02-04T01:30:00Z,30.2791,-87.5561,10.52,1111122 
DISL,ioos:station:DISL:PPTA:1,2017-02-04T02:00:00Z,30.2791,-87.5561,10.18,1111122 
DISL,ioos:station:DISL:PPTA:1,2017-02-04T02:30:00Z,30.2791,-87.5561,9.98,1111122 
DISL,ioos:station:DISL:PPTA:1,2017-02-04T03:00:00Z,30.2791,-87.5561,9.91,1111122 
DISL,ioos:station:DISL:PPTA:1,2017-02-04T03:30:00Z,30.2791,-87.5561,9.51,1111122 
DISL,ioos:station:DISL:PPTA:1,2017-02-04T04:00:00Z,30.2791,-87.5561,9.34,1111122 
DISL,ioos:station:DISL:PPTA:1,2017-02-04T04:30:00Z,30.2791,-87.5561,9.11,1111122 
DISL,ioos:station:DISL:PPTA:1,2017-02-04T05:00:00Z,30.2791,-87.5561,8.84,1111122 
DISL,ioos:station:DISL:PPTA:1,2017-02-04T05:30:00Z,30.2791,-87.5561,8.67,1111122 
DISL,ioos:station:DISL:PPTA:1,2017-02-04T06:00:00Z,30.2791,-87.5561,8.05,1111122 
DISL,ioos:station:DISL:PPTA:1,2017-02-04T06:30:00Z,30.2791,-87.5561,7.818,1111122 
DISL,ioos:station:DISL:PPTA:1,2017-02-04T07:00:00Z,30.2791,-87.5561,7.511,1111122 
DISL,ioos:station:DISL:PPTA:1,2017-02-04T07:30:00Z,30.2791,-87.5561,6.999,1111122 
DISL,ioos:station:DISL:PPTA:1,2017-02-04T08:00:00Z,30.2791,-87.5561,6.728,1111122 
DISL,ioos:station:DISL:PPTA:1,2017-02-04T08:30:00Z,30.2791,-87.5561,6.117,1111122 
DISL,ioos:station:DISL:PPTA:1,2017-02-04T09:00:00Z,30.2791,-87.5561,5.577,1111122 
DISL,ioos:station:DISL:PPTA:1,2017-02-04T09:30:00Z,30.2791,-87.5561,5.169,1111122 
DISL,ioos:station:DISL:PPTA:1,2017-02-04T10:00:00Z,30.2791,-87.5561,4.725,1111122 
DISL,ioos:station:DISL:PPTA:1,2017-02-04T10:30:00Z,30.2791,-87.5561,4.318,1111122 
DISL,ioos:station:DISL:PPTA:1,2017-02-04T11:00:00Z,30.2791,-87.5561,4.079,1111122 
DISL,ioos:station:DISL:PPTA:1,2017-02-04T11:30:00Z,30.2791,-87.5561,3.881,1111122 
DISL,ioos:station:DISL:PPTA:1,2017-02-04T12:00:00Z,30.2791,-87.5561,3.916,1111122 
DISL,ioos:station:DISL:PPTA:1,2017-02-04T12:30:00Z,30.2791,-87.5561,3.608,1111122 
DISL,ioos:station:DISL:PPTA:1,2017-02-04T13:00:00Z,30.2791,-87.5561,3.642,1111122 
DISL,ioos:station:DISL:PPTA:1,2017-02-04T13:30:00Z,30.2791,-87.5561,4.361,1111122 
DISL,ioos:station:DISL:PPTA:1,2017-02-04T14:00:00Z,30.2791,-87.5561,5.045,1111122 
DISL,ioos:station:DISL:PPTA:1,2017-02-04T14:30:00Z,30.2791,-87.5561,5.823,1111122 
DISL,ioos:station:DISL:PPTA:1,2017-02-04T15:00:00Z,30.2791,-87.5561,6.393,1111122 
DISL,ioos:station:DISL:PPTA:1,2017-02-04T15:30:00Z,30.2791,-87.5561,7.341,1111122 
DISL,ioos:station:DISL:PPTA:1,2017-02-04T16:00:00Z,30.2791,-87.5561,7.778,1111122 
DISL,ioos:station:DISL:PPTA:1,2017-02-04T16:30:00Z,30.2791,-87.5561,8.52,1111122 
DISL,ioos:station:DISL:PPTA:1,2017-02-04T17:00:00Z,30.2791,-87.5561,9.29,1111122 
DISL,ioos:station:DISL:PPTA:1,2017-02-04T17:30:00Z,30.2791,-87.5561,11.13,1111122 
DISL,ioos:station:DISL:PPTA:1,2017-02-04T18:00:00Z,30.2791,-87.5561,11.02,1111122 
DISL,ioos:station:DISL:PPTA:1,2017-02-04T18:30:00Z,30.2791,-87.5561,11.59,1111122 
DISL,ioos:station:DISL:PPTA:1,2017-02-04T19:00:00Z,30.2791,-87.5561,12.24,1111122 
DISL,ioos:station:DISL:PPTA:1,2017-02-04T19:30:00Z,30.2791,-87.5561,12.75,1111122 
DISL,ioos:station:DISL:PPTA:1,2017-02-04T20:00:00Z,30.2791,-87.5561,13.2,1111122 
DISL,ioos:station:DISL:PPTA:1,2017-02-04T20:30:00Z,30.2791,-87.5561,13.24,1111122 
DISL,ioos:station:DISL:PPTA:1,2017-02-04T21:00:00Z,30.2791,-87.5561,13.62,1111122 
DISL,ioos:station:DISL:PPTA:1,2017-02-04T21:30:00Z,30.2791,-87.5561,13.52,1111122 
DISL,ioos:station:DISL:PPTA:1,2017-02-04T22:00:00Z,30.2791,-87.5561,14.41,1111122 
DISL,ioos:station:DISL:PPTA:1,2017-02-04T22:30:00Z,30.2791,-87.5561,13.93,1111122 
DISL,ioos:station:DISL:PPTA:1,2017-02-04T23:00:00Z,30.2791,-87.5561,13.53,1111122 
DISL,ioos:station:DISL:PPTA:1,2017-02-04T23:30:00Z,30.2791,-87.5561,13.02,1111122 
DISL,ioos:station:DISL:PPTA:1,2017-02-05T00:00:00Z,30.2791,-87.5561,12.78,1111122 
DISL,ioos:station:DISL:PPTA:1,2017-02-05T00:30:00Z,30.2791,-87.5561,11.69,1111122 
DISL,ioos:station:DISL:PPTA:1,2017-02-05T01:00:00Z,30.2791,-87.5561,11.15,1111122 
DISL,ioos:station:DISL:PPTA:1,2017-02-05T01:30:00Z,30.2791,-87.5561,10.71,1111122 
DISL,ioos:station:DISL:PPTA:1,2017-02-05T02:00:00Z,30.2791,-87.5561,10.54,1111122 
DISL,ioos:station:DISL:PPTA:1,2017-02-05T02:30:00Z,30.2791,-87.5561,10.55,1111122 
DISL,ioos:station:DISL:PPTA:1,2017-02-05T03:00:00Z,30.2791,-87.5561,9.93,1111122 
DISL,ioos:station:DISL:PPTA:1,2017-02-05T03:30:00Z,30.2791,-87.5561,10.62,1111122 
DISL,ioos:station:DISL:PPTA:1,2017-02-05T04:00:00Z,30.2791,-87.5561,9.59,1111122 
DISL,ioos:station:DISL:PPTA:1,2017-02-05T04:30:00Z,30.2791,-87.5561,9.52,1111122 
DISL,ioos:station:DISL:PPTA:1,2017-02-05T05:00:00Z,30.2791,-87.5561,9.18,1111122 
DISL,ioos:station:DISL:PPTA:1,2017-02-05T05:30:00Z,30.2791,-87.5561,10.72,1111122 
DISL,ioos:station:DISL:PPTA:1,2017-02-05T06:00:00Z,30.2791,-87.5561,9.52,1111122 
DISL,ioos:station:DISL:PPTA:1,2017-02-05T06:30:00Z,30.2791,-87.5561,9.93,1111122 
DISL,ioos:station:DISL:PPTA:1,2017-02-05T07:00:00Z,30.2791,-87.5561,9.38,1111122 
DISL,ioos:station:DISL:PPTA:1,2017-02-05T07:30:00Z,30.2791,-87.5561,11.09,1111122 
DISL,ioos:station:DISL:PPTA:1,2017-02-05T08:00:00Z,30.2791,-87.5561,10.14,1111122 
DISL,ioos:station:DISL:PPTA:1,2017-02-05T08:30:00Z,30.2791,-87.5561,9.9,1111122 
DISL,ioos:station:DISL:PPTA:1,2017-02-05T09:00:00Z,30.2791,-87.5561,10.31,1111122 
DISL,ioos:station:DISL:PPTA:1,2017-02-05T09:30:00Z,30.2791,-87.5561,10.68,1111122 
DISL,ioos:station:DISL:PPTA:1,2017-02-05T10:00:00Z,30.2791,-87.5561,9.73,1111122 
DISL,ioos:station:DISL:PPTA:1,2017-02-05T10:30:00Z,30.2791,-87.5561,8.77,1111122 
DISL,ioos:station:DISL:PPTA:1,2017-02-05T11:00:00Z,30.2791,-87.5561,9.15,1111122 
DISL,ioos:station:DISL:PPTA:1,2017-02-05T11:30:00Z,30.2791,-87.5561,9.38,1111122 
DISL,ioos:station:DISL:PPTA:1,2017-02-05T12:00:00Z,30.2791,-87.5561,9.38,1111122 
DISL,ioos:station:DISL:PPTA:1,2017-02-05T12:30:00Z,30.2791,-87.5561,9.56,1111122 
DISL,ioos:station:DISL:PPTA:1,2017-02-05T13:00:00Z,30.2791,-87.5561,9.83,1111122 
DISL,ioos:station:DISL:PPTA:1,2017-02-05T13:30:00Z,30.2791,-87.5561,11.03,1111122 
DISL,ioos:station:DISL:PPTA:1,2017-02-05T14:00:00Z,30.2791,-87.5561,11.32,1111122 
DISL,ioos:station:DISL:PPTA:1,2017-02-05T14:30:00Z,30.2791,-87.5561,12.71,1111122 
DISL,ioos:station:DISL:PPTA:1,2017-02-05T15:00:00Z,30.2791,-87.5561,15.18,1111122 
DISL,ioos:station:DISL:PPTA:1,2017-02-05T15:30:00Z,30.2791,-87.5561,16.25,1111122 
DISL,ioos:station:DISL:PPTA:1,2017-02-05T16:00:00Z,30.2791,-87.5561,18.21,1111122 
DISL,ioos:station:DISL:PPTA:1,2017-02-05T16:30:00Z,30.2791,-87.5561,19.2,1111122 
DISL,ioos:station:DISL:PPTA:1,2017-02-05T17:00:00Z,30.2791,-87.5561,19.32,1111122 
DISL,ioos:station:DISL:PPTA:1,2017-02-05T17:30:00Z,30.2791,-87.5561,19.72,1111122 
DISL,ioos:station:DISL:PPTA:1,2017-02-05T18:00:00Z,30.2791,-87.5561,19.58,1111122 
DISL,ioos:station:DISL:PPTA:1,2017-02-05T18:30:00Z,30.2791,-87.5561,18.49,1111122 
DISL,ioos:station:DISL:PPTA:1,2017-02-05T19:00:00Z,30.2791,-87.5561,19.42,1111122 
DISL,ioos:station:DISL:PPTA:1,2017-02-05T19:30:00Z,30.2791,-87.5561,19.56,1111122 
DISL,ioos:station:DISL:PPTA:1,2017-02-05T20:00:00Z,30.2791,-87.5561,19.71,1111122 
DISL,ioos:station:DISL:PPTA:1,2017-02-05T20:30:00Z,30.2791,-87.5561,19.74,1111122 
DISL,ioos:station:DISL:PPTA:1,2017-02-05T21:00:00Z,30.2791,-87.5561,19.59,1111122 
DISL,ioos:station:DISL:PPTA:1,2017-02-05T21:30:00Z,30.2791,-87.5561,19.66,1111122 
DISL,ioos:station:DISL:PPTA:1,2017-02-05T22:00:00Z,30.2791,-87.5561,19.22,1111122 
DISL,ioos:station:DISL:PPTA:1,2017-02-05T22:30:00Z,30.2791,-87.5561,19.05,1111122 
DISL,ioos:station:DISL:PPTA:1,2017-02-05T23:00:00Z,30.2791,-87.5561,18.31,1111122 
DISL,ioos:station:DISL:PPTA:1,2017-02-05T23:30:00Z,30.2791,-87.5561,17.63,1111122 
DISL,ioos:station:DISL:PPTA:1,2017-02-06T00:00:00Z,30.2791,-87.5561,17.44,1111122 
DISL,ioos:station:DISL:PPTA:1,2017-02-06T00:30:00Z,30.2791,-87.5561,17.58,1111122 
DISL,ioos:station:DISL:PPTA:1,2017-02-06T01:00:00Z,30.2791,-87.5561,17.48,1111122 
DISL,ioos:station:DISL:PPTA:1,2017-02-06T01:30:00Z,30.2791,-87.5561,17.45,1111122 
DISL,ioos:station:DISL:PPTA:1,2017-02-06T02:00:00Z,30.2791,-87.5561,17.38,1111122 
DISL,ioos:station:DISL:PPTA:1,2017-02-06T02:30:00Z,30.2791,-87.5561,17.62,1111122 
DISL,ioos:station:DISL:PPTA:1,2017-02-06T03:00:00Z,30.2791,-87.5561,17.34,1111122 
DISL,ioos:station:DISL:PPTA:1,2017-02-06T03:30:00Z,30.2791,-87.5561,17.68,1111122 
DISL,ioos:station:DISL:PPTA:1,2017-02-06T04:00:00Z,30.2791,-87.5561,17.62,1111122 
DISL,ioos:station:DISL:PPTA:1,2017-02-06T04:30:00Z,30.2791,-87.5561,17.38,1111122 
DISL,ioos:station:DISL:PPTA:1,2017-02-06T05:00:00Z,30.2791,-87.5561,17.31,1111122 
DISL,ioos:station:DISL:PPTA:1,2017-02-06T05:30:00Z,30.2791,-87.5561,17.31,1111122 
DISL,ioos:station:DISL:PPTA:1,2017-02-06T06:00:00Z,30.2791,-87.5561,17.45,1111122 
DISL,ioos:station:DISL:PPTA:1,2017-02-06T06:30:00Z,30.2791,-87.5561,17.45,1111122 
DISL,ioos:station:DISL:PPTA:1,2017-02-06T07:00:00Z,30.2791,-87.5561,17.32,1111122 
DISL,ioos:station:DISL:PPTA:1,2017-02-06T07:30:00Z,30.2791,-87.5561,17.25,1111122 
DISL,ioos:station:DISL:PPTA:1,2017-02-06T08:00:00Z,30.2791,-87.5561,17.18,1111122 
DISL,ioos:station:DISL:PPTA:1,2017-02-06T08:30:00Z,30.2791,-87.5561,17.32,1111122 
DISL,ioos:station:DISL:PPTA:1,2017-02-06T09:00:00Z,30.2791,-87.5561,17.18,1111122 
DISL,ioos:station:DISL:PPTA:1,2017-02-06T09:30:00Z,30.2791,-87.5561,17.05,1111122 
DISL,ioos:station:DISL:PPTA:1,2017-02-06T10:00:00Z,30.2791,-87.5561,15.75,1111122 
DISL,ioos:station:DISL:PPTA:1,2017-02-06T10:30:00Z,30.2791,-87.5561,15.34,1111122 
DISL,ioos:station:DISL:PPTA:1,2017-02-06T11:00:00Z,30.2791,-87.5561,15.07,1111122 
DISL,ioos:station:DISL:PPTA:1,2017-02-06T11:30:00Z,30.2791,-87.5561,14.94,1111122 
DISL,ioos:station:DISL:PPTA:1,2017-02-06T12:00:00Z,30.2791,-87.5561,15.07,1111122 
DISL,ioos:station:DISL:PPTA:1,2017-02-06T12:30:00Z,30.2791,-87.5561,16.1,1111122 
DISL,ioos:station:DISL:PPTA:1,2017-02-06T13:00:00Z,30.2791,-87.5561,14.8,1111122 
DISL,ioos:station:DISL:PPTA:1,2017-02-06T13:30:00Z,30.2791,-87.5561,15.31,1111122 
DISL,ioos:station:DISL:PPTA:1,2017-02-06T14:00:00Z,30.2791,-87.5561,15.85,1111122 
DISL,ioos:station:DISL:PPTA:1,2017-02-06T14:30:00Z,30.2791,-87.5561,16.93,1111122 
DISL,ioos:station:DISL:PPTA:1,2017-02-06T15:00:00Z,30.2791,-87.5561,17.56,1111122 
DISL,ioos:station:DISL:PPTA:1,2017-02-06T15:30:00Z,30.2791,-87.5561,17.58,1111122 
DISL,ioos:station:DISL:PPTA:1,2017-02-06T16:00:00Z,30.2791,-87.5561,17.94,1111122 
DISL,ioos:station:DISL:PPTA:1,2017-02-06T16:30:00Z,30.2791,-87.5561,18.34,1111122 
DISL,ioos:station:DISL:PPTA:1,2017-02-06T17:00:00Z,30.2791,-87.5561,18.34,1111122 
DISL,ioos:station:DISL:PPTA:1,2017-02-06T17:30:00Z,30.2791,-87.5561,17.49,1111122 
DISL,ioos:station:DISL:PPTA:1,2017-02-06T18:00:00Z,30.2791,-87.5561,17.18,1111122 
DISL,ioos:station:DISL:PPTA:1,2017-02-06T18:30:00Z,30.2791,-87.5561,17.12,1111122 
DISL,ioos:station:DISL:PPTA:1,2017-02-06T19:00:00Z,30.2791,-87.5561,17.44,1111122 
DISL,ioos:station:DISL:PPTA:1,2017-02-06T19:30:00Z,30.2791,-87.5561,17.41,1111122 
DISL,ioos:station:DISL:PPTA:1,2017-02-06T20:00:00Z,30.2791,-87.5561,17.44,1111122 
DISL,ioos:station:DISL:PPTA:1,2017-02-06T20:30:00Z,30.2791,-87.5561,18.23,1111122 
DISL,ioos:station:DISL:PPTA:1,2017-02-06T21:00:00Z,30.2791,-87.5561,17.62,1111122 
DISL,ioos:station:DISL:PPTA:1,2017-02-06T21:30:00Z,30.2791,-87.5561,18.17,1111122 
DISL,ioos:station:DISL:PPTA:1,2017-02-06T22:00:00Z,30.2791,-87.5561,18.03,1111122 
DISL,ioos:station:DISL:PPTA:1,2017-02-06T22:30:00Z,30.2791,-87.5561,18.17,1111122 
DISL,ioos:station:DISL:PPTA:1,2017-02-06T23:00:00Z,30.2791,-87.5561,18.18,1111122 
DISL,ioos:station:DISL:PPTA:1,2017-02-06T23:30:00Z,30.2791,-87.5561,18.07,1111122 
DISL,ioos:station:DISL:PPTA:1,2017-02-07T00:00:00Z,30.2791,-87.5561,18.25,1111122 